Location: Hoover
(45.1124°N, 103.2678°W)
Time: 03:27:54
(UTC+00:00)

N. Korean satellite - Pass Details

Date: 28 November 2020
Orbit: 453 x 502 km, 97.2° (Epoch: 16 January)

Event Time Altitude Azimuth Distance (km) Brightness Sun altitude
Rises 23:55:39 0° 183° (S) 2,452 10.5 -7.5°
Reaches altitude 10° 23:57:45 10° 191° (S) 1,587 9.7 -7.8°
Maximum altitude 00:00:58 39° 262° (W) 703 8.1 -8.3°
Drops below altitude 10° 00:04:14 10° 333° (NNW) 1,614 9.3 -8.9°
Sets 00:06:23 0° 341° (NNW) 2,501 10.2 -9.2°
